{"data":{"norad_id":63506,"epoch":"2026-09-20T20:38:07.796544Z","epoch_age_seconds":124422,"freshness":"FRESH","line1":"1 63506U 25071P   26263.85981246  .00010045  00000+0  30800-3 0  9990","line2":"2 63506  53.1603 311.7962 0000913  86.0071 274.1036 15.34402108 82623","mean_motion":15.34402108,"eccentricity":9.13e-5,"inclination_deg":53.1603,"raan_deg":311.7962,"arg_perigee_deg":86.0071,"mean_anomaly_deg":274.1036,"bstar":0.000308,"rev_number":8262,"period_min":93.847629150937,"perigee_km":462.07240665214,"apogee_km":463.32154293594,"semimajor_km":6840.833974794,"source":"CELESTRAK","updated_at":"2026-09-21T09:00:35.015895Z"}}